Date,TemperatureHighF,TemperatureAvgF,TemperatureLowF,DewpointHighF,DewpointAvgF,DewpointLowF,HumidityHigh,HumidityAvg,HumidityLow,PressureMaxIn,PressureMinIn,WindSpeedMaxMPH,WindSpeedAvgMPH,GustSpeedMaxMPH,PrecipitationSumIn
2013-1-1,35.2,31.1,20.6,27.4,20.0,9.8,76,64,52,29.93,29.75,35,7,35,0.00
2013-1-2,28.9,20.7,13.5,17.7,11.8,6.0,81,69,56,30.12,29.91,26,5,27,0.00
2013-1-3,25.2,16.3,6.7,14.7,4.5,-3.9,75,60,36,30.15,30.01,16,4,17,0.00
2013-1-4,36.1,27.6,20.8,25.2,19.7,14.1,89,72,61,30.01,29.84,20,5,20,0.00
2013-1-5,40.2,31.7,22.5,25.6,22.4,19.2,95,69,48,30.27,29.87,27,3,28,0.00
2013-1-6,41.7,31.3,22.7,31.3,26.5,19.7,97,83,62,30.23,29.94,19,2,19,0.01
2013-1-7,38.3,28.5,19.2,30.3,22.9,16.5,96,81,46,30.41,29.98,20,3,20,0.00
2013-1-8,45.4,32.7,17.5,31.1,26.5,15.4,97,79,55,30.38,30.28,23,3,23,0.00
2013-1-9,44.1,34.8,21.6,37.5,29.6,20.1,95,82,56,30.40,30.03,19,3,21,0.00
2013-1-10,44.4,39.3,29.9,33.8,26.6,24.3,84,61,46,30.53,30.08,47,8,47,0.01
2013-1-11,37.2,31.6,24.4,36.6,28.3,22.4,98,88,72,30.53,30.20,3,0,3,0.23
2013-1-12,41.3,37.7,35.4,41.0,37.3,34.9,100,99,97,30.22,30.11,5,0,5,0.07
2013-1-13,51.6,44.0,36.5,50.6,43.5,36.1,100,98,91,30.16,30.01,14,1,14,0.00
2013-1-14,56.2,48.8,38.4,51.8,43.3,29.8,99,83,48,30.26,29.89,24,5,24,0.01
2013-1-15,38.6,34.7,30.7,32.5,29.5,26.6,95,82,62,30.32,30.20,12,2,12,0.03
2013-1-16,33.7,32.2,29.9,32.6,30.2,25.8,97,93,74,30.24,29.81,6,0,7,0.58
2013-1-17,39.6,33.5,29.0,32.7,27.8,17.5,97,81,57,30.09,29.85,26,4,26,0.00
2013-1-18,30.1,23.1,16.8,18.8,8.7,-0.5,76,54,35,30.47,30.02,29,8,29,0.00
2013-1-19,45.2,35.5,19.5,34.4,25.4,8.3,94,67,51,30.40,29.89,25,4,26,0.00
2013-1-20,50.7,40.9,27.8,34.3,27.7,10.7,78,60,34,29.93,29.57,34,11,34,0.01
2013-1-21,27.8,23.9,18.9,21.4,14.2,8.9,92,68,48,30.10,29.79,22,3,24,0.00
2013-1-22,22.1,18.4,12.0,20.1,7.2,-2.0,93,64,37,30.09,29.75,30,6,30,0.00
2013-1-23,14.1,9.7,6.0,3.7,-3.8,-7.5,69,54,44,30.17,30.08,30,6,30,0.00
2013-1-24,18.0,9.8,0.0,-2.7,-5.2,-7.0,80,51,35,30.26,30.11,29,7,29,0.00
2013-1-25,21.6,15.2,8.7,13.2,-1.7,-6.5,87,48,34,30.34,30.05,23,4,23,0.00
2013-1-26,22.7,16.0,9.5,13.2,5.6,-2.6,90,66,39,30.26,30.00,27,6,27,0.00
2013-1-27,28.7,19.3,9.2,7.9,4.1,0.9,78,53,36,30.47,30.26,22,6,22,0.00
2013-1-28,29.9,23.9,16.3,27.3,15.5,3.1,96,72,38,30.46,30.00,10,1,10,0.00
2013-1-29,33.4,30.0,26.3,32.3,29.1,24.8,98,96,94,30.18,30.00,6,0,6,0.25
2013-1-30,59.0,48.2,32.6,57.0,47.5,32.1,100,97,92,30.15,29.45,24,4,25,0.15
2013-1-31,59.9,46.9,30.4,58.8,37.5,14.0,98,72,41,29.60,28.99,44,10,44,0.67
2013-2-1,30.4,27.0,21.0,18.9,12.4,6.7,75,54,40,30.10,29.60,28,10,28,0.00
2013-2-2,28.6,23.3,17.4,17.5,10.3,6.1,76,57,43,30.26,30.05,20,4,20,0.00
2013-2-3,27.9,23.7,19.2,22.4,19.7,17.0,92,85,74,30.06,29.74,13,2,13,0.00
2013-2-4,27.9,22.9,17.7,19.7,13.3,8.9,91,67,46,29.96,29.73,33,5,33,0.01
2013-2-5,25.5,22.6,19.2,22.1,17.2,12.0,93,80,68,30.02,29.93,4,0,4,0.00
2013-2-6,35.9,27.7,23.8,26.3,18.2,5.0,94,71,40,30.30,29.92,22,5,22,0.02
2013-2-7,30.2,22.5,15.4,11.9,8.8,6.5,80,57,38,30.52,30.31,12,2,12,0.00
2013-2-8,31.8,27.3,18.6,30.8,24.3,11.1,97,89,63,30.47,29.54,27,4,30,0.90
2013-2-9,25.1,20.0,15.5,20.2,15.6,5.7,100,84,65,30.22,29.53,36,12,36,0.00
2013-2-10,37.7,21.2,5.7,20.0,7.5,0.9,92,59,24,30.41,30.22,19,4,19,0.26
2013-2-11,46.3,32.7,14.8,45.8,30.7,11.4,99,92,79,30.36,29.61,15,2,16,0.13
2013-2-12,42.4,38.0,34.6,40.8,30.1,24.4,94,74,58,29.90,29.62,30,8,30,0.00
2013-2-13,42.4,33.8,27.4,29.6,25.7,22.8,88,73,51,29.88,29.67,14,3,17,0.00
2013-2-14,44.1,33.4,27.4,28.6,24.9,21.3,92,72,43,30.00,29.71,15,3,15,0.00
2013-2-15,49.4,34.3,26.0,36.1,30.5,23.5,100,87,59,30.01,29.91,17,3,17,0.00
2013-2-16,35.5,33.2,29.4,32.8,28.7,21.2,97,84,66,29.94,29.68,19,5,19,0.02
2013-2-17,29.4,21.5,15.4,22.5,11.4,2.8,93,67,38,29.74,29.43,39,13,39,0.01
2013-2-18,29.7,20.8,14.1,9.2,3.5,0.7,64,48,30,30.18,29.74,32,13,32,0.00
2013-2-19,47.4,33.5,18.5,43.3,26.3,7.1,100,76,50,30.19,29.58,15,2,15,0.31
2013-2-20,40.6,31.2,25.7,39.0,22.0,11.8,97,70,48,29.81,29.56,28,11,28,0.02
2013-2-21,31.7,26.5,24.2,18.5,16.1,13.7,73,65,52,30.23,29.79,33,12,33,0.00
2013-2-22,40.8,29.2,22.5,25.6,21.4,18.0,85,73,51,30.38,30.22,19,4,19,0.00
2013-2-23,37.1,33.2,29.0,32.7,29.6,25.1,96,87,77,30.32,29.88,7,0,8,0.42
2013-2-24,34.8,33.7,31.9,34.0,32.7,31.0,97,96,94,29.89,29.68,16,4,16,0.45
2013-2-25,37.7,33.0,27.9,33.0,31.0,26.9,97,92,78,30.24,29.89,11,2,11,0.11
2013-2-26,41.9,35.2,31.9,34.0,30.7,28.0,98,84,62,30.33,30.12,7,1,7,0.00
2013-2-27,42.2,37.9,34.7,41.5,36.9,31.1,98,96,86,30.12,29.58,15,4,15,1.40
2013-2-28,43.8,36.6,31.2,39.9,35.0,30.3,98,94,83,29.64,29.52,7,1,7,0.00
2013-3-1,42.6,37.1,31.8,33.8,30.7,27.7,98,79,57,29.69,29.52,23,6,23,0.01
2013-3-2,38.6,35.8,33.1,29.9,28.2,26.4,84,74,66,29.68,29.62,16,4,16,0.00
2013-3-3,38.2,33.3,30.7,30.4,27.5,24.2,92,79,68,29.65,29.56,16,6,16,0.00
2013-3-4,37.4,32.2,27.5,26.8,24.0,20.9,83,72,60,29.76,29.61,29,10,31,0.00
2013-3-5,43.5,35.4,29.4,31.0,27.5,23.0,92,73,58,30.07,29.76,19,5,21,0.00
2013-3-6,38.9,35.8,32.6,35.8,33.3,30.5,96,91,76,30.06,29.99,22,4,23,0.16
2013-3-7,34.6,32.5,30.6,32.0,30.1,28.3,100,91,84,30.01,29.96,23,10,23,0.04
2013-3-8,37.9,32.3,29.5,33.7,29.9,26.8,98,91,68,30.13,29.91,26,6,26,0.44
2013-3-9,50.8,37.8,28.0,32.1,25.8,20.0,95,64,33,30.34,30.12,18,3,18,0.00
2013-3-10,51.0,36.1,24.8,34.4,30.3,23.6,97,81,51,30.40,30.30,9,1,9,0.02
2013-3-11,53.9,42.2,35.1,41.0,36.7,32.3,94,82,50,30.33,30.15,15,4,15,0.00
2013-3-12,57.0,49.2,37.3,53.0,47.6,36.0,99,94,82,30.15,29.73,16,2,16,0.77
2013-3-13,47.1,41.3,30.8,44.7,31.6,22.8,94,71,39,29.79,29.71,27,7,27,0.01
2013-3-14,34.2,29.9,23.7,28.0,18.2,10.4,85,62,48,29.86,29.73,32,10,32,0.00
2013-3-15,39.7,29.7,21.3,29.9,17.2,8.0,82,61,35,29.88,29.66,20,7,21,0.00
2013-3-16,38.9,33.5,27.7,28.1,18.1,10.7,76,54,35,29.87,29.70,16,4,16,0.00
2013-3-17,35.4,30.8,25.4,20.3,15.2,5.7,75,54,30,30.30,29.86,25,5,27,0.00
2013-3-18,37.3,28.1,18.0,26.6,10.8,1.4,88,50,25,30.45,30.20,7,2,8,0.00
2013-3-19,36.4,32.5,28.3,35.4,31.1,26.5,96,95,88,30.20,29.60,15,3,16,0.96
2013-3-20,37.6,31.4,26.2,29.8,23.0,18.6,94,72,47,29.82,29.69,29,7,29,0.00
2013-3-21,35.1,30.0,24.7,28.9,24.5,19.5,92,80,66,29.83,29.61,16,2,16,0.00
2013-3-22,37.9,31.9,25.5,26.9,21.1,17.0,82,65,48,29.77,29.62,23,8,23,0.00
2013-3-23,39.7,34.7,28.7,27.0,22.6,19.3,82,62,46,29.82,29.68,32,8,36,0.01
2013-3-24,46.5,37.2,30.4,29.3,24.7,20.4,83,61,43,29.85,29.72,19,5,19,0.00
2013-3-25,42.6,36.2,30.6,33.4,29.6,25.5,87,77,61,29.77,29.48,18,2,19,0.00
2013-3-26,44.9,38.3,32.5,31.3,28.2,23.7,82,67,47,29.80,29.52,18,6,20,0.00
2013-3-27,48.9,39.8,27.9,32.7,26.8,22.6,86,62,39,29.88,29.76,24,4,25,0.00
2013-3-28,47.7,41.8,36.0,36.9,33.4,29.7,93,73,51,30.03,29.87,20,4,20,0.00
2013-3-29,52.9,45.0,35.1,35.6,32.8,27.1,92,64,40,30.06,29.97,18,4,19,0.00
2013-3-30,54.2,45.0,35.4,34.5,27.2,16.9,80,53,26,30.10,30.00,26,5,26,0.00
2013-3-31,56.8,42.7,28.5,43.4,28.9,23.6,95,63,29,30.12,29.70,20,3,20,0.00
2013-4-1,59.1,45.9,34.7,45.6,38.4,16.6,97,77,44,29.81,29.51,31,6,31,0.22
2013-4-2,38.0,33.5,28.1,20.6,17.2,11.5,68,52,35,29.97,29.81,27,7,29,0.01
2013-4-3,42.0,35.2,30.4,20.8,17.6,13.9,66,49,33,30.19,29.96,32,10,32,0.00
2013-4-4,54.2,39.5,29.2,31.3,21.4,12.0,78,51,25,30.32,30.07,17,5,18,0.00
2013-4-5,57.7,44.2,37.4,34.0,29.8,20.1,81,60,25,30.07,29.64,26,6,28,0.00
2013-4-6,46.6,37.7,30.2,29.7,16.8,6.4,71,45,20,30.33,29.89,27,6,29,0.00
2013-4-7,52.6,40.4,26.0,43.0,28.8,17.1,86,65,36,30.32,30.02,26,5,26,0.00
2013-4-8,66.4,52.7,44.5,45.7,41.7,35.0,95,70,33,30.08,29.96,18,3,18,0.00
2013-4-9,68.1,56.7,46.6,52.8,45.7,40.9,97,70,41,30.07,29.85,30,4,30,0.00
2013-4-10,66.2,53.3,45.5,52.8,47.4,44.4,100,82,58,30.00,29.84,11,2,11,0.34
2013-4-11,55.2,48.3,41.1,47.4,41.4,28.4,98,79,47,30.13,29.81,15,2,15,0.01
2013-4-12,41.1,38.8,37.2,37.6,35.7,31.8,97,89,73,30.13,29.76,13,2,14,0.43
2013-4-13,51.7,43.4,35.9,41.0,36.8,34.3,97,79,54,29.93,29.72,18,4,19,0.05
2013-4-14,50.2,43.7,36.3,39.9,33.5,27.0,95,70,43,30.22,29.92,26,5,29,0.00
2013-4-15,59.1,45.0,30.4,38.3,33.3,27.0,91,66,42,30.39,30.21,8,1,9,0.00
2013-4-16,63.9,50.2,34.6,51.1,42.9,33.3,98,78,50,30.40,30.08,21,4,21,0.00
2013-4-17,67.1,56.8,45.2,52.9,41.3,29.9,92,60,27,30.32,30.07,17,5,18,0.00
2013-4-18,63.2,49.8,36.4,47.0,38.0,30.6,97,68,34,30.41,30.13,11,2,11,0.00
2013-4-19,70.2,60.5,51.6,63.2,57.8,46.9,99,91,73,30.14,29.67,28,5,28,0.01
2013-4-20,63.2,52.8,44.2,62.2,42.8,28.8,97,71,43,30.23,29.61,23,6,23,0.59
2013-4-21,55.2,42.8,34.1,32.5,26.0,20.4,79,53,27,30.66,30.23,25,4,26,0.00
2013-4-22,53.2,39.9,31.2,35.2,31.6,25.8,94,75,35,30.72,30.57,15,3,15,0.00
2013-4-23,42.0,40.3,38.1,41.2,37.9,31.6,100,92,75,30.57,30.09,13,3,14,0.01
2013-4-24,72.2,53.6,40.7,49.1,44.4,37.7,97,76,29,30.09,29.82,23,6,23,0.01
2013-4-25,61.0,53.4,43.1,52.0,38.1,24.8,95,61,26,30.26,29.85,27,7,27,0.03
2013-4-26,62.5,49.1,33.9,42.4,35.1,29.3,92,61,37,30.41,30.26,9,0,10,0.00
2013-4-27,64.9,49.7,34.5,42.7,38.3,33.1,98,69,36,30.42,30.29,8,0,8,0.00
2013-4-28,69.4,53.8,37.1,41.9,35.9,26.7,97,57,26,30.34,30.21,13,2,13,0.00
2013-4-29,68.0,53.5,45.6,47.7,37.4,22.6,93,60,26,30.27,30.20,16,2,16,0.00
2013-4-30,71.0,54.1,41.7,40.4,31.7,22.8,82,46,20,30.35,30.24,9,1,9,0.00
2013-5-1,71.7,51.3,33.8,46.4,37.2,29.6,87,63,29,30.46,30.35,10,1,10,0.00
2013-5-2,77.1,57.6,41.5,46.7,42.6,38.6,97,63,28,30.47,30.30,12,1,12,0.00
2013-5-3,63.6,51.8,42.7,46.9,42.0,38.4,89,70,52,30.49,30.37,19,2,21,0.00
2013-5-4,63.4,50.8,37.9,47.6,37.2,23.3,97,65,23,30.37,30.27,13,1,14,0.00
2013-5-5,67.0,50.9,37.9,45.3,40.6,35.9,96,72,39,30.32,30.21,12,2,12,0.00
2013-5-6,74.1,56.9,43.3,54.1,46.9,40.8,94,72,43,30.28,30.13,12,1,12,0.00
2013-5-7,76.0,61.0,43.7,60.2,52.6,42.5,98,76,55,30.18,30.08,11,1,11,0.00
2013-5-8,69.9,61.2,54.6,63.2,58.9,53.2,99,93,75,30.17,30.03,8,0,9,0.20
2013-5-9,67.8,60.3,56.6,61.7,58.9,56.3,99,96,76,30.03,29.86,7,0,7,0.37
2013-5-10,78.0,64.2,55.4,59.6,56.5,50.8,99,79,42,29.96,29.89,11,2,11,0.01
2013-5-11,69.1,62.4,57.7,62.8,59.4,54.6,97,90,74,29.92,29.70,22,2,22,0.08
2013-5-12,69.1,61.0,51.3,60.0,53.0,31.6,98,77,46,29.83,29.57,25,3,25,0.02
2013-5-13,55.9,48.8,40.5,37.3,33.7,30.0,80,57,38,30.04,29.83,20,3,20,0.00
2013-5-14,56.6,48.5,38.6,38.8,34.3,28.8,89,60,38,30.06,29.99,17,3,18,0.00
2013-5-15,63.2,50.4,35.2,53.5,42.6,32.6,95,77,42,30.07,29.69,13,1,14,0.03
2013-5-16,79.6,63.5,50.6,54.8,47.8,37.6,97,64,24,29.80,29.64,26,2,27,0.00
2013-5-17,71.0,58.6,48.4,53.1,45.3,39.0,90,64,33,30.21,29.79,19,2,19,0.00
2013-5-18,69.7,58.6,45.5,52.0,46.2,38.4,95,67,35,30.31,30.21,12,1,12,0.00
2013-5-19,66.5,57.2,47.6,55.7,51.7,45.7,97,83,60,30.34,30.21,11,1,11,0.09
2013-5-20,80.0,67.3,55.7,68.1,62.1,55.1,99,85,61,30.21,29.92,14,1,14,0.02
2013-5-21,84.8,66.7,52.4,72.8,62.4,51.6,99,88,61,29.98,29.81,9,0,10,0.12
2013-5-22,75.5,61.0,50.5,70.3,58.9,49.5,99,93,81,30.03,29.85,19,1,19,0.01
2013-5-23,73.5,65.6,58.6,68.9,64.0,57.8,100,95,82,29.91,29.80,14,2,14,0.22
2013-5-24,68.3,62.0,48.8,66.2,60.6,47.6,99,95,87,29.82,29.65,15,2,16,0.52
2013-5-25,51.1,47.4,42.2,49.7,46.3,40.1,98,96,91,29.82,29.73,20,5,20,0.19
2013-5-26,56.4,49.0,41.2,46.3,42.4,38.8,95,79,59,30.13,29.75,30,6,30,0.03
2013-5-27,70.4,56.1,41.0,48.9,41.9,36.1,97,64,30,30.17,30.08,22,4,25,0.00
2013-5-28,73.5,59.0,42.6,56.8,47.7,40.6,97,70,33,30.23,30.16,8,0,8,0.00
2013-5-29,77.9,65.0,57.5,70.0,62.1,56.3,98,91,74,30.18,29.98,18,0,18,0.80
2013-5-30,87.2,74.5,62.6,73.6,67.7,62.0,99,82,53,30.09,30.01,20,2,20,0.03
2013-5-31,90.0,77.3,66.0,71.9,67.9,64.0,97,75,48,30.09,29.95,9,0,9,0.00
2013-6-1,87.3,75.9,67.2,71.8,67.3,63.8,93,76,53,29.99,29.88,9,1,9,0.00
2013-6-2,84.7,74.6,67.8,70.2,67.2,64.5,92,79,56,29.90,29.75,17,2,18,0.00
2013-6-3,75.3,68.2,61.7,69.6,65.5,53.3,98,91,74,29.84,29.76,8,1,10,0.84
2013-6-4,70.3,60.5,51.9,56.3,48.0,41.8,93,65,47,30.08,29.83,20,3,20,0.00
2013-6-5,73.3,60.9,48.3,56.3,50.0,45.1,96,70,43,30.20,30.08,10,0,10,0.00
2013-6-6,70.5,60.0,50.5,58.0,53.1,48.6,96,79,53,30.18,30.08,5,0,5,0.01
2013-6-7,60.7,56.6,53.6,60.0,55.9,53.0,99,97,94,30.08,29.78,5,0,6,3.02
2013-6-8,75.5,62.6,53.0,65.9,58.8,52.5,99,88,68,30.01,29.60,17,2,17,0.69
2013-6-9,77.3,67.2,58.3,63.7,58.1,54.9,94,75,49,30.17,30.01,16,2,16,0.00
2013-6-10,69.5,61.7,55.2,64.4,59.4,54.1,100,93,76,30.19,29.97,6,0,6,0.77
2013-6-11,70.3,60.5,57.1,66.2,59.5,56.7,99,97,84,29.98,29.55,12,0,12,1.49
2013-6-12,69.0,63.1,57.8,60.4,56.1,54.0,99,79,60,29.82,29.57,30,4,30,0.00
2013-6-13,62.6,56.2,51.0,60.0,54.4,49.9,98,94,83,29.82,29.64,7,0,7,0.47
2013-6-14,72.1,59.0,51.2,62.6,54.4,50.7,98,86,60,29.79,29.60,15,1,16,1.27
2013-6-15,76.2,65.8,56.9,66.5,52.1,43.9,89,64,34,29.95,29.79,14,2,14,0.57
2013-6-16,73.8,65.1,52.8,65.5,57.8,50.4,96,78,59,29.95,29.73,7,0,8,0.00
2013-6-17,82.5,67.8,60.5,67.5,61.9,59.5,97,83,52,29.91,29.78,28,2,33,0.08
2013-6-18,79.1,63.1,58.4,66.9,60.6,57.8,100,93,61,29.93,29.83,13,1,13,0.64
2013-6-19,74.6,63.0,54.4,60.4,55.4,49.4,99,79,46,30.15,29.89,12,1,12,0.02
2013-6-20,78.4,64.4,50.4,60.3,53.9,47.5,98,72,39,30.26,30.15,8,0,8,0.00
2013-6-21,80.1,69.7,59.8,67.1,61.2,54.5,88,75,61,30.27,30.19,8,1,8,0.00
2013-6-22,81.8,70.1,63.3,65.7,60.0,55.8,81,71,51,30.23,30.12,9,1,9,0.00
2013-6-23,85.9,74.3,64.7,72.4,66.4,59.3,89,77,59,30.17,30.02,11,1,11,0.00
2013-6-24,89.7,78.0,67.8,75.6,71.2,66.7,98,81,56,30.04,29.88,18,1,19,0.26
2013-6-25,88.2,76.3,66.8,74.8,69.8,65.6,98,82,57,29.95,29.74,18,1,21,0.04
2013-6-26,83.0,74.6,69.4,74.3,70.7,68.2,97,88,63,29.84,29.73,16,1,16,0.26
2013-6-27,71.6,67.3,65.0,69.7,66.6,64.4,99,97,92,29.85,29.73,4,0,4,0.00
2013-6-28,79.9,72.3,65.0,73.9,69.8,64.7,100,92,77,29.73,29.49,10,0,10,0.25
2013-6-29,81.0,73.8,70.1,71.7,70.0,68.3,99,88,69,29.72,29.50,10,1,10,0.00
2013-6-30,83.6,75.2,71.3,74.7,71.3,68.5,97,88,72,29.93,29.72,7,0,8,0.09
2013-7-1,80.4,73.7,71.0,75.4,72.2,70.2,99,95,82,30.08,29.94,8,0,8,0.02
2013-7-2,82.8,76.0,72.8,75.0,72.9,71.5,97,90,76,30.18,30.07,7,0,7,0.00
2013-7-3,84.7,77.1,71.5,75.8,72.7,70.1,96,87,71,30.22,30.15,10,1,10,0.01
2013-7-4,88.0,80.2,73.9,78.0,74.8,72.3,96,84,67,30.22,30.11,9,1,10,0.00
2013-7-5,90.0,80.6,73.7,77.8,74.2,71.3,94,82,57,30.18,30.05,10,1,10,0.00
2013-7-6,88.3,80.9,74.0,78.5,74.3,71.7,95,81,59,30.09,29.98,12,1,15,0.00
2013-7-7,89.4,78.9,71.1,78.9,73.9,69.9,97,86,64,30.03,29.90,8,0,8,0.00
2013-7-8,89.1,78.7,69.3,76.8,72.9,68.7,98,83,60,30.05,29.90,17,1,18,1.25
2013-7-9,79.4,70.8,66.5,72.9,68.7,66.2,99,93,76,30.10,30.03,5,0,5,0.00
2013-7-10,83.6,74.9,68.4,76.8,72.4,67.0,99,92,78,30.06,29.79,7,0,7,0.02
2013-7-11,79.6,75.0,70.3,75.8,72.9,69.0,99,93,83,29.92,29.78,10,0,10,0.45
2013-7-12,75.5,70.3,65.8,69.0,64.2,59.8,97,81,71,30.18,29.91,7,0,7,0.00
2013-7-13,76.3,70.2,64.6,74.0,68.5,61.8,99,94,87,30.30,30.18,2,0,3,0.05
2013-7-14,87.7,79.2,73.1,79.1,74.2,72.2,99,86,65,30.30,30.20,12,1,12,0.01
2013-7-15,88.5,80.4,74.4,79.1,75.0,72.7,97,84,64,30.21,30.10,12,1,12,0.00
2013-7-16,93.9,80.8,71.0,78.3,72.1,67.5,94,76,48,30.17,30.10,12,0,12,0.00
2013-7-17,91.5,80.6,70.6,79.1,73.0,69.3,97,79,51,30.18,30.02,7,0,7,0.00
2013-7-18,93.3,83.3,75.4,80.3,74.8,71.7,91,77,54,30.03,29.93,11,1,11,0.00
2013-7-19,92.8,84.3,77.1,80.8,77.0,74.7,95,80,59,29.95,29.74,13,1,13,0.00
2013-7-20,89.1,81.2,74.2,79.1,76.0,71.7,95,85,66,29.82,29.65,14,0,19,0.02
2013-7-21,86.0,76.8,69.7,72.3,67.7,63.3,93,74,52,29.99,29.81,8,0,8,0.00
2013-7-22,83.5,74.4,66.9,73.9,69.8,65.8,98,86,66,30.00,29.86,5,0,5,0.00
2013-7-23,83.4,74.2,71.5,77.7,72.7,70.0,99,95,77,29.87,29.53,17,0,17,2.12
2013-7-24,80.6,74.8,69.4,72.9,69.7,59.5,99,85,63,29.94,29.58,15,2,15,0.01
2013-7-25,69.4,60.3,58.1,60.4,56.6,50.8,98,88,70,30.09,29.94,14,0,15,1.15
2013-7-26,71.5,64.4,59.6,68.1,62.4,58.6,99,94,82,30.05,29.96,17,1,17,0.35
2013-7-27,80.8,71.0,63.5,70.0,65.6,62.3,99,84,59,30.07,30.00,8,0,8,0.00
2013-7-28,82.9,72.3,65.7,74.0,67.9,64.8,98,87,63,30.02,29.95,7,0,7,0.00
2013-7-29,83.7,74.1,66.2,74.6,69.7,65.0,98,87,67,30.05,29.96,7,0,7,0.00
2013-7-30,78.9,70.5,63.8,67.2,61.4,58.1,93,74,52,30.11,30.05,16,3,16,0.00
2013-7-31,81.2,69.9,59.6,69.2,62.4,57.6,95,78,51,30.15,30.05,6,0,7,0.00
2013-8-1,78.5,68.5,61.8,68.3,64.3,60.6,99,87,64,30.06,29.88,8,0,8,0.01
2013-8-2,80.5,70.5,64.4,69.0,64.7,61.8,99,84,57,29.90,29.80,17,1,17,0.24
2013-8-3,77.1,69.5,63.8,68.0,64.7,62.1,96,85,69,29.88,29.80,10,0,10,0.01
2013-8-4,75.9,67.3,59.3,62.6,59.0,56.3,96,76,54,29.91,29.79,15,2,18,0.00
2013-8-5,74.6,63.3,56.0,60.8,54.1,45.4,94,75,38,30.05,29.91,19,3,21,0.01
2013-8-6,79.4,64.0,49.9,60.9,54.5,48.1,97,74,45,30.15,30.05,5,0,5,0.00
2013-8-7,77.2,66.7,55.3,62.2,58.5,54.1,100,77,50,30.19,30.12,5,0,5,0.00
2013-8-8,78.7,71.3,65.2,72.7,68.1,60.8,97,90,80,30.13,30.02,8,0,9,0.03
2013-8-9,75.6,73.3,71.0,74.9,72.1,70.1,99,96,91,30.04,29.76,9,0,9,1.33
2013-8-10,79.2,72.2,62.7,73.8,64.2,54.1,99,78,46,30.02,29.80,17,2,18,0.01
2013-8-11,77.5,66.2,53.9,66.2,56.4,51.6,94,73,51,30.10,30.01,14,1,14,0.00
2013-8-12,80.8,69.8,60.9,68.1,62.3,58.5,97,79,54,30.05,29.93,10,0,10,0.00
2013-8-13,76.5,68.3,63.9,68.7,65.4,61.9,98,91,73,29.94,29.69,4,0,4,0.02
2013-8-14,71.5,65.3,59.1,65.5,57.0,51.6,97,75,59,29.98,29.68,24,3,25,0.00
2013-8-15,74.0,63.6,55.0,60.8,55.4,50.8,95,77,50,30.13,29.98,14,1,14,0.00
2013-8-16,76.3,65.0,53.5,65.3,57.3,52.1,97,78,49,30.21,30.12,8,0,8,0.00
2013-8-17,81.8,68.1,56.1,66.8,60.2,54.3,96,77,49,30.28,30.21,8,0,8,0.00
2013-8-18,77.7,66.0,58.9,65.4,61.1,57.5,97,85,54,30.28,30.09,2,0,3,0.01
2013-8-19,76.9,68.5,60.9,68.0,62.4,57.8,96,82,55,30.10,29.97,17,1,17,0.00
2013-8-20,82.1,71.9,63.4,71.1,64.5,60.1,96,79,54,30.11,29.99,10,1,10,0.00
2013-8-21,84.1,72.7,62.4,73.0,65.7,61.2,96,80,53,30.15,30.04,9,0,9,0.00
2013-8-22,79.8,71.8,65.9,73.5,68.7,64.7,98,90,77,30.06,29.85,8,1,8,0.00
2013-8-23,78.9,72.0,62.9,69.9,62.7,54.9,95,74,51,30.12,29.83,17,2,17,0.00
2013-8-24,78.6,65.5,56.4,61.6,54.1,48.8,92,69,40,30.35,30.12,9,0,9,0.00
2013-8-25,79.2,67.8,55.2,63.9,57.1,52.2,96,72,43,30.37,30.20,12,0,12,28.99
2013-8-26,76.9,69.9,64.6,68.5,63.8,60.0,96,81,72,30.21,29.89,11,1,11,0.05
2013-8-27,82.0,71.6,67.6,73.9,69.4,66.7,99,93,75,29.90,29.83,0,0,0,0.34
2013-8-28,82.7,71.9,63.2,72.7,68.1,62.6,99,89,63,29.94,29.84,0,0,0,0.00
2013-8-29,68.3,64.4,60.0,67.0,62.9,58.4,99,95,91,30.07,29.94,5,0,5,0.00
2013-8-30,79.8,67.3,60.0,70.9,64.2,58.4,98,90,71,30.04,29.85,8,1,8,0.00
2013-8-31,77.1,73.1,69.5,73.3,71.2,68.5,97,94,87,29.85,29.80,6,0,7,0.01
2013-9-1,78.7,73.2,68.5,75.9,71.9,67.8,99,96,89,29.88,29.79,11,0,11,0.10
2013-9-2,77.7,73.8,70.2,75.4,72.4,69.6,99,95,88,29.86,29.70,7,0,7,0.43
2013-9-3,75.0,71.1,62.7,71.8,68.3,59.8,99,91,81,29.84,29.69,8,0,8,0.04
2013-9-4,77.3,67.1,59.3,63.1,59.9,57.2,96,79,53,29.94,29.82,17,2,17,0.00
2013-9-5,67.6,60.4,51.5,62.4,57.5,48.6,97,90,69,30.15,29.88,8,0,8,0.04
2013-9-6,65.8,55.5,45.7,53.8,46.7,41.5,95,74,48,30.26,30.13,10,0,10,0.00
2013-9-7,74.4,62.2,48.5,60.8,53.3,46.3,95,74,47,30.12,29.88,8,0,8,0.00
2013-9-8,73.7,64.8,51.5,63.9,56.4,43.1,96,76,40,30.09,29.77,24,3,24,0.00
2013-9-9,68.1,55.7,43.2,54.5,47.4,40.6,93,75,49,30.25,30.09,5,0,5,0.00
2013-9-10,73.7,66.0,54.4,70.3,63.5,51.2,96,92,87,30.18,30.04,10,1,10,0.01
2013-9-11,89.8,78.1,70.8,79.5,73.3,69.6,98,86,62,30.08,29.95,14,1,14,0.00
2013-9-12,83.3,74.9,68.8,75.5,71.2,67.9,98,89,70,29.99,29.69,12,1,13,0.37
2013-9-13,75.6,68.7,60.7,68.5,65.1,57.5,99,89,68,29.77,29.58,13,1,13,0.08
2013-9-14,65.0,59.2,53.4,58.2,54.4,51.3,95,84,69,30.07,29.77,15,2,15,0.00
2013-9-15,68.1,58.0,48.8,56.1,51.6,47.4,98,81,53,30.18,30.07,9,1,9,0.00
2013-9-16,65.3,58.1,49.0,57.2,53.0,42.0,94,83,65,30.25,30.04,10,1,15,0.02
2013-9-17,63.2,50.6,42.1,50.5,41.7,37.0,95,73,47,30.43,30.25,13,1,13,0.00
2013-9-18,71.2,54.7,41.3,56.5,47.0,40.0,96,78,42,30.35,30.17,10,0,10,0.00
2013-9-19,76.0,61.5,49.6,61.2,53.5,46.7,92,77,49,30.17,30.05,6,0,7,0.00
2013-9-20,77.5,62.9,51.1,63.6,55.2,49.8,97,79,45,30.09,30.00,7,0,7,0.00
2013-9-21,73.9,63.2,53.6,66.8,60.3,52.8,100,91,69,30.04,29.73,11,0,11,0.00
2013-9-22,69.9,63.8,51.5,67.8,58.0,46.8,98,82,59,29.85,29.61,19,4,19,0.67
2013-9-23,61.7,52.7,45.0,51.0,45.5,42.1,92,77,57,30.02,29.84,18,2,19,0.00
2013-9-24,66.5,52.6,42.2,52.4,44.9,40.0,95,77,44,30.02,29.83,16,2,17,0.00
2013-9-25,67.2,56.3,45.5,57.2,49.8,43.4,97,80,60,29.99,29.87,15,1,15,0.00
2013-9-26,67.6,57.0,50.5,55.5,50.6,47.5,97,80,58,30.12,29.99,11,1,11,0.00
2013-9-27,63.8,57.3,49.9,57.8,52.9,48.7,97,86,71,30.27,30.12,10,0,10,0.00
2013-9-28,71.8,57.1,45.8,58.8,52.2,45.0,99,85,58,30.33,30.26,10,0,10,0.00
2013-9-29,67.8,54.1,43.6,57.0,48.9,42.8,100,85,50,30.27,30.12,8,0,8,0.00
2013-9-30,67.9,54.9,47.4,57.5,50.8,46.9,99,88,55,30.13,29.97,10,0,10,0.00
2013-10-1,75.7,60.9,49.0,62.8,53.9,47.6,97,80,49,29.97,29.86,16,1,19,0.00
2013-10-2,75.8,65.2,56.2,63.2,59.0,54.3,95,82,62,29.98,29.86,20,1,20,0.00
2013-10-3,74.6,61.5,53.1,57.4,52.9,45.4,96,77,36,30.10,29.98,6,0,6,0.00
2013-10-4,62.3,55.9,50.5,58.3,54.1,48.8,99,94,78,30.10,30.04,11,0,11,0.61
2013-10-5,68.3,61.3,56.3,63.7,59.5,56.0,99,94,83,30.12,30.05,4,0,4,0.08
2013-10-6,60.2,57.7,56.0,58.4,56.8,55.6,99,97,91,30.20,30.11,5,0,5,0.57
2013-10-7,74.0,64.2,56.0,70.5,62.7,55.7,100,95,83,30.12,29.83,14,1,14,0.15
2013-10-8,65.1,56.3,45.9,56.1,47.9,43.0,94,75,48,30.37,29.91,17,1,17,0.00
2013-10-9,61.1,51.0,44.3,49.0,44.4,41.3,95,80,54,30.46,30.36,8,0,8,0.00
2013-10-10,62.0,53.3,44.7,55.5,50.4,43.6,98,90,77,30.36,30.17,5,0,6,0.00
2013-10-11,68.0,57.4,50.8,59.6,52.9,47.5,98,85,73,30.17,30.08,7,0,7,0.00
2013-10-12,63.0,55.2,50.5,57.3,52.4,47.6,97,90,81,30.37,30.14,10,1,10,0.00
2013-10-13,59.2,52.4,41.7,51.7,48.6,40.4,97,87,71,30.43,30.36,6,1,6,0.00
2013-10-14,63.6,47.8,34.2,49.8,43.0,33.3,100,85,52,30.41,30.26,3,0,3,0.00
2013-10-15,68.8,55.5,45.7,55.8,50.3,44.6,98,84,58,30.28,30.17,3,0,4,0.00
2013-10-16,60.6,53.9,47.0,55.5,52.0,46.1,99,93,81,30.18,29.91,6,0,6,0.00
2013-10-17,71.3,60.2,51.4,62.7,57.8,50.6,99,92,73,29.92,29.73,8,0,9,0.03
2013-10-18,64.5,59.6,47.0,61.9,52.3,44.8,98,78,53,29.92,29.62,23,3,25,0.02
2013-10-19,62.9,51.1,40.0,49.6,43.9,38.7,97,78,48,29.99,29.75,7,0,7,0.00
2013-10-20,59.9,52.9,41.0,52.2,42.5,34.5,97,71,39,30.04,29.70,23,4,23,0.01
2013-10-21,66.6,51.6,40.1,46.0,41.0,36.0,92,70,42,30.14,30.01,13,1,13,0.00
2013-10-22,65.3,52.5,42.4,53.9,47.4,41.2,99,84,55,30.01,29.71,14,1,17,0.01
2013-10-23,49.7,43.8,34.4,41.6,37.3,33.1,97,79,56,29.81,29.60,8,0,8,0.00
2013-10-24,51.0,43.6,36.5,37.7,33.1,27.1,91,68,42,29.91,29.67,22,3,22,0.00
2013-10-25,48.5,41.2,35.1,36.3,31.8,29.3,86,70,50,30.18,29.91,20,3,20,0.00
2013-10-26,52.9,43.3,32.1,40.0,33.2,27.7,92,70,41,30.18,29.88,23,3,23,0.00
2013-10-27,52.3,46.3,36.0,40.4,36.5,31.3,94,70,46,30.09,29.82,21,4,24,0.02
2013-10-28,56.4,43.0,32.0,38.8,33.4,27.3,95,71,46,30.35,30.08,25,2,25,0.00
2013-10-29,49.4,38.6,29.4,31.3,27.2,24.3,87,65,41,30.45,30.35,13,1,14,0.00
2013-10-30,53.9,41.2,29.3,44.6,36.6,24.2,96,84,67,30.38,30.21,13,0,13,0.00
2013-10-31,61.3,48.3,34.4,59.7,46.9,33.6,99,95,87,30.25,29.81,13,1,13,0.08
2013-11-1,68.0,62.9,58.7,63.1,58.9,54.8,98,87,76,29.81,29.48,36,6,36,0.15
2013-11-2,64.0,54.9,46.5,55.1,46.9,41.3,97,77,44,29.73,29.59,15,1,16,0.00
2013-11-3,53.1,42.8,33.3,48.1,32.9,19.4,89,69,42,30.42,29.72,18,5,18,0.01
2013-11-4,43.2,33.3,24.9,24.1,20.2,15.5,85,60,35,30.71,30.42,13,2,14,0.00
2013-11-5,52.1,36.7,23.9,35.8,28.9,20.6,92,75,48,30.73,30.53,8,0,8,0.00
2013-11-6,59.1,48.8,37.8,50.9,43.0,34.8,94,81,59,30.53,30.06,16,2,17,0.00
2013-11-7,64.5,54.2,41.4,58.3,50.8,30.4,97,89,63,30.06,29.68,20,6,20,0.27
2013-11-8,46.1,39.3,32.4,36.0,29.3,24.3,91,68,47,30.12,29.83,30,5,30,0.00
2013-11-9,44.2,36.2,27.1,31.4,27.6,24.3,93,72,50,30.23,30.04,22,2,22,0.00
2013-11-10,54.7,44.8,37.8,42.8,38.0,31.0,97,78,54,30.04,29.75,30,4,37,0.04
2013-11-11,50.3,44.4,39.1,35.8,31.2,27.8,69,60,46,30.13,29.90,28,7,28,0.00
2013-11-12,49.2,36.3,28.3,39.2,27.5,18.0,93,71,58,30.20,29.90,26,6,26,0.09
2013-11-13,35.3,29.0,24.1,21.3,17.5,13.2,80,63,43,30.31,30.19,20,3,20,0.00
2013-11-14,49.1,39.1,30.1,26.4,22.6,18.6,71,53,37,30.19,30.07,24,6,24,0.00
2013-11-15,58.4,46.6,37.8,36.9,26.2,17.0,87,47,26,30.22,30.13,15,3,16,0.00
2013-11-16,57.8,45.1,34.1,39.8,34.8,28.3,93,69,47,30.33,30.20,15,1,16,0.00
2013-11-17,58.4,46.6,33.2,58.1,45.0,31.1,99,94,80,30.31,29.83,7,0,7,0.06
2013-11-18,63.3,58.2,48.4,61.6,49.5,33.1,100,75,43,29.83,29.55,25,4,25,0.29
2013-11-19,48.5,39.9,31.9,34.3,25.9,21.1,68,57,48,30.28,29.68,29,9,33,0.01
2013-11-20,42.3,31.7,23.1,21.8,18.1,11.7,83,59,30,30.63,30.28,22,4,22,0.00
2013-11-21,45.6,32.5,19.4,36.5,23.8,15.9,90,72,44,30.64,30.40,13,1,13,0.00
2013-11-22,49.1,44.9,40.4,48.2,43.1,36.2,98,94,81,30.40,29.84,9,0,9,0.17
2013-11-23,48.7,40.5,29.6,46.8,30.1,16.8,96,67,40,29.94,29.81,29,10,33,0.00
2013-11-24,29.4,23.8,20.1,20.0,9.3,2.3,72,54,37,30.23,29.83,42,16,42,0.00
2013-11-25,32.6,24.9,16.7,22.5,9.5,0.4,66,52,33,30.40,30.23,23,5,23,0.00
2013-11-26,39.9,35.4,32.0,35.8,26.0,20.0,98,70,48,30.33,30.02,13,2,13,0.20
2013-11-27,61.7,49.2,36.1,60.7,48.0,32.0,99,96,85,30.02,29.23,22,4,25,1.82
2013-11-28,36.7,29.5,23.1,32.1,18.4,11.4,85,64,45,30.45,29.50,31,8,31,0.00
2013-11-29,33.1,27.0,21.2,19.4,15.8,7.4,86,63,49,30.74,30.45,17,2,18,0.00
2013-11-30,33.9,24.5,15.1,23.0,15.2,8.1,82,68,50,30.79,30.43,6,0,7,0.00
2013-12-1,38.2,33.7,28.2,37.6,31.9,22.5,99,93,80,30.43,30.01,6,0,6,0.10
2013-12-2,41.6,36.4,31.6,39.2,35.7,30.8,99,97,90,30.02,29.92,6,0,6,0.01
2013-12-3,48.6,37.8,30.4,38.9,34.2,29.2,100,88,59,29.97,29.85,17,2,17,0.00
2013-12-4,47.1,34.8,28.9,35.0,30.1,27.5,97,84,56,30.21,29.97,11,1,11,0.00
2013-12-5,54.9,41.7,30.5,54.7,40.3,28.9,100,95,90,30.20,29.94,15,0,15,0.00
2013-12-6,55.7,48.0,36.0,55.1,46.4,34.6,100,94,89,30.12,29.87,15,3,16,0.43
2013-12-7,36.9,33.8,28.0,34.7,30.0,23.6,97,86,63,30.47,30.07,19,4,20,0.17
2013-12-8,30.2,27.3,21.5,24.8,20.7,16.9,94,77,58,30.60,30.46,8,1,8,0.00
2013-12-9,36.4,30.8,24.9,35.8,29.4,19.3,99,95,69,30.49,29.91,11,1,11,0.32
2013-12-10,34.2,31.0,22.7,33.4,29.6,19.6,98,95,83,30.03,29.79,13,2,13,0.00
2013-12-11,28.0,24.5,19.5,22.9,20.3,17.3,94,84,77,30.25,30.03,18,4,18,0.00
2013-12-12,24.2,19.5,11.0,19.8,11.1,4.5,87,71,45,30.29,30.09,23,3,23,0.00
2013-12-13,29.0,21.8,12.7,19.7,13.4,7.1,91,71,57,30.37,30.03,25,4,25,0.00
2013-12-14,24.2,15.6,12.2,22.4,8.4,0.7,93,73,55,30.59,30.11,10,2,10,0.39
2013-12-15,34.8,28.2,19.8,34.0,26.3,18.3,97,93,84,30.11,29.42,18,5,18,0.67
2013-12-16,27.0,21.7,10.5,23.1,14.6,8.0,96,75,49,30.22,29.76,25,4,25,0.00
2013-12-17,19.9,10.6,-0.1,18.0,8.2,-3.0,92,90,85,30.27,29.94,17,1,17,0.00
2013-12-18,31.6,24.8,17.2,22.5,19.8,15.0,93,81,65,30.11,29.89,19,4,20,0.00
2013-12-19,43.2,30.6,16.4,30.3,24.3,13.8,100,78,52,30.13,29.98,21,3,21,0.07
2013-12-20,50.9,38.2,26.6,38.2,32.0,25.0,97,80,55,30.13,29.94,13,1,13,0.15
2013-12-21,56.8,46.2,35.5,49.8,42.9,33.3,98,88,74,30.00,29.88,12,1,12,0.00
2013-12-22,63.0,55.6,38.3,60.2,53.2,37.3,97,92,80,29.99,29.76,20,4,22,0.01
2013-12-23,40.7,36.1,33.8,39.9,35.5,33.0,99,98,90,30.10,29.94,14,1,14,0.68
2013-12-24,38.9,32.3,26.2,36.4,23.8,13.7,91,71,54,30.22,30.04,21,5,21,0.00
2013-12-25,26.1,19.2,15.3,16.0,7.4,4.3,80,60,47,30.55,30.21,27,6,27,0.00
2013-12-26,32.3,25.3,16.5,30.8,20.9,9.6,95,83,70,30.50,30.11,10,1,10,0.03
2013-12-27,34.0,27.4,18.4,23.5,21.0,16.2,95,77,56,30.30,30.22,15,2,15,0.00
2013-12-28,46.5,34.1,25.8,29.8,26.4,21.6,91,74,49,30.24,30.02,18,4,19,0.00
2013-12-29,44.4,36.9,30.3,39.1,33.6,27.3,98,88,65,30.04,29.39,24,2,24,1.04
2013-12-30,38.2,30.7,18.7,36.5,23.7,10.8,99,77,51,30.15,29.53,30,4,30,0.00
2013-12-31,25.2,19.2,14.7,17.1,12.0,7.2,88,74,52,30.21,30.03,16,2,16,0.00
2014-1-1,26.9,21.5,13.9,16.0,11.1,6.3,89,64,51,30.39,30.21,19,4,19,0.00
2014-1-2,21.7,14.2,2.9,17.2,11.3,-0.3,91,88,77,30.35,29.80,18,4,19,0.00